Terug naar catalogus

FENGYUN 1C DEB

ActiefPO
NORAD 30632·DEBRIS·🇨🇳 China

Gelanceerd May 10, 1999 vanaf Taiyuan Satellite Launch Center

Loading…

Volgende Passages (komende 24 uur)

TLE

VersSource: Space-Track

Epoch: Sep 14, 2026, 05:19 UTC

1 30632U 99025ANP 26257.22186575  .00010182  00000-0  15725-2 0  9991
2 30632  98.8364  55.4986 0013864  33.0796 139.6911 14.73479310 17345

Volg FENGYUN 1C DEB in realtime met AllMySat

Download on the App Store